Weather History for Dillon, MT

Change the Weather History Date:

Friday, January 31, 2014

  Actual Average Record
Temperature  
Mean Temperature 18 °F 24 °F  
Max Temperature 34 °F 34 °F 57 °F (1971)
Min Temperature 2 °F 14 °F -27 °F (1951)
Degree Days  
Heating Degree Days 47    
Month to date heating degree days 1103  
Since 1 July heating degree days 4433  
Cooling Degree Days 0    
Month to date cooling degree days 0  
Year to date cooling degree days 0  
Moisture  
Dew Point 8 °F    
Average Humidity 65    
Maximum Humidity 91    
Minimum Humidity 38    
Precipitation  
Precipitation 0.00 in 0.01 in 0.50 in (1972)
Month to date precipitation 0.02 0.28  
Year to date precipitation 0.02 0.28  
Snow  
Snow 0.00 in - - ()
Snow Depth 0.00 in    
Sea Level Pressure  
Sea Level Pressure 29.93 in    
Wind  
Wind Speed 10 mph (SW)    
Max Wind Speed 26 mph    
Max Gust Speed 32 mph    
Visibility 10 miles    
Events      
T = Trace of Precipitation, MM = Missing Value Source: NWS Daily Summary

Daily Weather History Graph

Daily Weather History Graph

Search for Another Location

Airport:

Trip Planner

Search our weather history database for the weather conditions in past years. The results will help you decide how hot, cold, wet, or windy it might be!

Date:

Astronomy

Jan. 31, 2014 Rise Set
Actual Time 7:51 AM MST 5:36 PM MST
Civil Twilight 7:20 AM MST 6:07 PM MST
Nautical Twilight 6:44 AM MST 6:43 PM MST
Astronomical Twilight 6:10 AM MST 7:17 PM MST
Moon 7:59 AM MST (1/31) 7:11 PM MST (1/31)
Length of Visible Light 10h 47m
Length of Day
9h 44m
New Moon, 1% of the Moon is Illuminated
Jan 31
New Moon
Feb 6
First Quarter
Feb 14
Full
Feb 22
Last Quarter
Mar 1
New

Hourly Weather History & Observations

Time (MST) Temp. Windchill Dew Point Humidity Pressure Visibility Wind Dir Wind Speed Gust Speed Precip Events Conditions
12:53 AM 8.1 °F -2.0 °F 5.0 °F 87% 29.96 in 10.0 mi SSW 5.8 mph - N/A   Mostly Cloudy
1:53 AM 9.0 °F 2.4 °F 5.0 °F 84% 29.95 in 10.0 mi SW 3.5 mph - N/A   Clear
2:53 AM 6.1 °F - 1.9 °F 83% 29.96 in 10.0 mi Calm Calm - N/A   Clear
3:53 AM 3.0 °F -4.4 °F -0.0 °F 87% 29.97 in 10.0 mi West 3.5 mph - N/A   Clear
4:53 AM 3.9 °F - 1.0 °F 88% 29.98 in 10.0 mi Calm Calm - N/A   Clear
5:53 AM 5.0 °F - 1.0 °F 84% 29.99 in 10.0 mi Calm Calm - N/A   Clear
6:53 AM 3.9 °F -3.4 °F 1.0 °F 88% 30.01 in 10.0 mi SSW 3.5 mph - N/A   Clear
7:53 AM 8.1 °F -0.5 °F 3.9 °F 83% 30.00 in 10.0 mi Variable 4.6 mph - N/A   Partly Cloudy
8:41 AM 10.9 °F -1.8 °F 6.1 °F 81% 29.76 in 2.0 mi SW 9.2 mph - N/A   Haze
8:50 AM 12.2 °F 1.7 °F 8.6 °F 85% 29.76 in 10.0 mi SW 6.9 mph - N/A   Clear
8:53 AM 12.9 °F 1.6 °F 8.1 °F 81% 30.01 in 10.0 mi SW 8.1 mph - N/A   Clear
9:53 AM 16.0 °F 5.3 °F 10.9 °F 81% 30.00 in 10.0 mi SW 8.1 mph - N/A   Clear
10:53 AM 25.0 °F 12.2 °F 12.9 °F 60% 29.94 in 10.0 mi SW 16.1 mph - N/A   Partly Cloudy
11:53 AM 30.0 °F 18.7 °F 10.9 °F 45% 29.92 in 10.0 mi SSW 16.1 mph - N/A   Clear
12:53 PM 30.9 °F 19.4 °F 10.0 °F 42% 29.89 in 10.0 mi SW 17.3 mph - N/A   Scattered Clouds
1:53 PM 33.1 °F 21.9 °F 10.0 °F 38% 29.86 in 10.0 mi SW 18.4 mph - N/A   Mostly Cloudy
2:53 PM 30.9 °F 19.4 °F 10.0 °F 42% 29.87 in 10.0 mi West 17.3 mph 21.9 mph N/A   Mostly Cloudy
3:53 PM 30.9 °F 20.7 °F 9.0 °F 40% 29.90 in 10.0 mi WSW 13.8 mph - N/A   Overcast
4:53 PM 26.1 °F 14.5 °F 15.1 °F 63% 29.93 in 10.0 mi WSW 13.8 mph - N/A   Mostly Cloudy
5:53 PM 26.1 °F 14.5 °F 12.0 °F 55% 29.93 in 10.0 mi WSW 13.8 mph - N/A   Partly Cloudy
6:53 PM 24.1 °F 12.5 °F 14.0 °F 65% 29.96 in 10.0 mi SW 12.7 mph - N/A   Mostly Cloudy
7:53 PM 24.1 °F 12.0 °F 12.9 °F 62% 29.95 in 10.0 mi SW 13.8 mph - N/A   Overcast
8:53 PM 23.0 °F 11.7 °F 12.0 °F 63% 29.94 in 10.0 mi SSW 11.5 mph - N/A   Scattered Clouds
9:53 PM 21.0 °F 10.6 °F 10.9 °F 65% 29.93 in 10.0 mi SSW 9.2 mph - N/A   Mostly Cloudy
10:53 PM 21.9 °F 11.0 °F 12.0 °F 66% 29.88 in 10.0 mi SW 10.4 mph - N/A   Overcast
11:53 PM 14.0 °F -3.9 °F 10.0 °F 84% 29.94 in 10.0 mi NE 20.7 mph - N/A   Overcast